Year,Month,Day,Hour,Minute,Value (Times are PST for temperature in C)
2008,08,27,00,00,12.50
2008,08,27,00,01,12.50
2008,08,27,00,02,12.50
2008,08,27,00,03,12.50
2008,08,27,00,04,12.60
2008,08,27,00,05,12.60
2008,08,27,00,06,12.60
2008,08,27,00,07,12.60
2008,08,27,00,08,12.60
2008,08,27,00,09,12.60
2008,08,27,00,10,12.60
2008,08,27,00,11,12.60
2008,08,27,00,12,12.60
2008,08,27,01,02,12.30
2008,08,27,01,03,12.30
2008,08,27,01,04,12.30
2008,08,27,01,05,12.30
2008,08,27,01,06,12.30
2008,08,27,01,07,12.30
2008,08,27,01,08,12.30
2008,08,27,01,09,12.30
2008,08,27,01,10,12.30
2008,08,27,01,11,12.30
2008,08,27,01,12,12.20
2008,08,27,01,13,12.20
2008,08,27,01,14,12.20
2008,08,27,01,15,12.20
2008,08,27,01,16,12.20
2008,08,27,01,17,12.20
2008,08,27,01,18,12.20
2008,08,27,01,19,12.20
2008,08,27,01,20,12.20
2008,08,27,01,21,12.20
2008,08,27,01,22,12.10
2008,08,27,01,23,12.10
2008,08,27,01,24,12.10
2008,08,27,01,25,12.10
2008,08,27,01,26,12.10
2008,08,27,01,27,12.10
2008,08,27,01,28,12.10
2008,08,27,01,29,12.00
2008,08,27,01,30,12.00
2008,08,27,01,31,12.00
2008,08,27,01,32,12.00
2008,08,27,01,33,12.00
2008,08,27,01,34,11.90
2008,08,27,01,35,11.90
2008,08,27,01,36,11.90
2008,08,27,01,37,11.80
2008,08,27,01,38,11.80
2008,08,27,01,39,11.80
2008,08,27,01,40,11.80
2008,08,27,01,41,11.80
2008,08,27,01,42,11.80
2008,08,27,01,43,11.80
2008,08,27,01,44,11.70
2008,08,27,01,45,11.70
2008,08,27,01,46,11.70
2008,08,27,01,47,11.60
2008,08,27,01,48,11.60
2008,08,27,01,49,11.60
2008,08,27,01,50,11.60
2008,08,27,01,51,11.60
2008,08,27,01,52,11.60
2008,08,27,01,53,11.60
2008,08,27,01,54,11.60
2008,08,27,01,55,11.60
2008,08,27,01,56,11.60
2008,08,27,01,57,11.60
2008,08,27,01,58,11.60
2008,08,27,01,59,11.60
2008,08,27,02,00,11.60
2008,08,27,02,01,11.60
2008,08,27,02,02,11.60
2008,08,27,02,03,11.60
2008,08,27,02,04,11.60
2008,08,27,02,05,11.60
2008,08,27,02,06,11.60
2008,08,27,02,07,11.60
2008,08,27,02,08,11.60
2008,08,27,02,09,11.50
2008,08,27,02,10,11.40
2008,08,27,02,11,11.40
2008,08,27,02,12,11.40
2008,08,27,02,13,11.40
2008,08,27,02,14,11.40
2008,08,27,02,15,11.40
2008,08,27,02,16,11.40
2008,08,27,02,17,11.40
2008,08,27,02,18,11.40
2008,08,27,02,19,11.40
2008,08,27,02,20,11.40
2008,08,27,02,21,11.40
2008,08,27,02,22,11.40
2008,08,27,02,23,11.40
2008,08,27,02,24,11.40
2008,08,27,02,25,11.40
2008,08,27,02,26,11.40
2008,08,27,02,27,11.40
2008,08,27,02,28,11.40
2008,08,27,02,29,11.40
2008,08,27,02,30,11.40
2008,08,27,02,31,11.40
2008,08,27,02,32,11.40
2008,08,27,02,33,11.40
2008,08,27,02,34,11.40
2008,08,27,02,35,11.40
2008,08,27,02,36,11.40
2008,08,27,02,37,11.40
2008,08,27,02,38,11.40
2008,08,27,02,39,11.40
2008,08,27,02,40,11.40
2008,08,27,02,41,11.40
2008,08,27,02,42,11.40
2008,08,27,02,43,11.40
2008,08,27,02,44,11.40
2008,08,27,02,45,11.40
2008,08,27,02,46,11.40
2008,08,27,02,47,11.40
2008,08,27,02,48,11.40
2008,08,27,02,49,11.40
2008,08,27,02,50,11.40
2008,08,27,02,51,11.40
2008,08,27,02,52,11.50
2008,08,27,02,53,11.60
2008,08,27,02,54,11.60
2008,08,27,02,55,11.60
2008,08,27,02,56,11.60
2008,08,27,02,57,11.60
2008,08,27,02,58,11.60
2008,08,27,02,59,11.60
2008,08,27,03,00,11.60
2008,08,27,03,01,11.60
2008,08,27,03,02,11.60
2008,08,27,03,03,11.60
2008,08,27,03,04,11.60
2008,08,27,03,05,11.60
2008,08,27,03,06,11.60
2008,08,27,03,07,11.60
2008,08,27,03,08,11.60
2008,08,27,03,09,11.60
2008,08,27,03,10,11.60
2008,08,27,03,11,11.60
2008,08,27,03,12,11.60
2008,08,27,03,13,11.60
2008,08,27,03,14,11.60
2008,08,27,03,15,11.60
2008,08,27,03,16,11.60
2008,08,27,03,17,11.60
2008,08,27,03,18,11.60
2008,08,27,03,19,11.60
2008,08,27,03,20,11.60
2008,08,27,03,21,11.60
2008,08,27,03,22,11.60
2008,08,27,03,23,11.60
2008,08,27,03,24,11.60
2008,08,27,03,25,11.60
2008,08,27,03,26,11.60
2008,08,27,03,27,11.60
2008,08,27,03,28,11.60
2008,08,27,03,29,11.60
2008,08,27,03,30,11.60
2008,08,27,03,31,11.60
2008,08,27,03,32,11.60
2008,08,27,03,33,11.60
2008,08,27,03,34,11.60
2008,08,27,03,35,11.60
2008,08,27,03,36,11.70
2008,08,27,03,37,11.70
2008,08,27,03,38,11.70
2008,08,27,03,39,11.70
2008,08,27,03,40,11.70
2008,08,27,03,41,11.70
2008,08,27,03,42,11.70
2008,08,27,03,43,11.70
2008,08,27,03,44,11.70
2008,08,27,03,45,11.70
2008,08,27,03,46,11.70
2008,08,27,03,47,11.70
2008,08,27,03,48,11.70
2008,08,27,03,49,11.70
2008,08,27,03,50,11.70
2008,08,27,03,51,11.70
2008,08,27,03,52,11.70
2008,08,27,03,53,11.70
2008,08,27,03,54,11.70
2008,08,27,03,55,11.70
2008,08,27,03,56,11.70
2008,08,27,03,57,11.70
2008,08,27,03,58,11.70
2008,08,27,03,59,11.80
2008,08,27,04,00,11.80
2008,08,27,04,01,11.70
2008,08,27,04,02,11.70
2008,08,27,04,03,11.70
2008,08,27,04,04,11.70
2008,08,27,04,05,11.70
2008,08,27,04,06,11.70
2008,08,27,04,07,11.70
2008,08,27,04,08,11.80
2008,08,27,04,09,11.80
2008,08,27,04,10,11.80
2008,08,27,04,11,11.80
2008,08,27,04,12,11.80
2008,08,27,04,13,11.70
2008,08,27,04,14,11.70
2008,08,27,04,15,11.70
2008,08,27,04,16,11.70
2008,08,27,04,17,11.70
2008,08,27,04,18,11.70
2008,08,27,04,19,11.70
2008,08,27,04,20,11.70
2008,08,27,04,21,11.70
2008,08,27,04,22,11.70
2008,08,27,04,23,11.70
2008,08,27,04,24,11.70
2008,08,27,04,25,11.70
2008,08,27,04,26,11.70
2008,08,27,04,27,11.70
2008,08,27,04,28,11.70
2008,08,27,04,29,11.70
2008,08,27,04,30,11.70
2008,08,27,04,31,11.70
2008,08,27,04,32,11.70
2008,08,27,04,33,11.70
2008,08,27,04,34,11.70
2008,08,27,04,35,11.70
2008,08,27,04,36,11.70
2008,08,27,04,37,11.70
2008,08,27,04,38,11.70
2008,08,27,04,39,11.70
2008,08,27,04,40,11.80
2008,08,27,04,41,11.80
2008,08,27,04,42,11.80
2008,08,27,04,43,11.80
2008,08,27,04,44,11.80
2008,08,27,04,45,11.80
2008,08,27,04,46,11.80
2008,08,27,04,47,11.70
2008,08,27,04,48,11.70
2008,08,27,04,49,11.70
2008,08,27,04,50,11.70
2008,08,27,04,51,11.70
2008,08,27,04,52,11.70
2008,08,27,04,53,11.70
2008,08,27,04,54,11.70
2008,08,27,04,55,11.70
2008,08,27,04,56,11.70
2008,08,27,04,57,11.70
2008,08,27,04,58,11.70
2008,08,27,04,59,11.70
2008,08,27,05,00,11.70
2008,08,27,05,01,11.70
2008,08,27,05,02,11.70
2008,08,27,05,03,11.70
2008,08,27,05,04,11.70
2008,08,27,05,05,11.70
2008,08,27,05,06,11.70
2008,08,27,05,07,11.70
2008,08,27,05,08,11.70
2008,08,27,05,09,11.70
2008,08,27,05,10,11.70
2008,08,27,05,11,11.70
2008,08,27,05,12,11.70
2008,08,27,05,13,11.60
2008,08,27,05,14,11.60
2008,08,27,05,15,11.60
2008,08,27,05,16,11.60
2008,08,27,05,17,11.60
2008,08,27,05,18,11.60
2008,08,27,05,19,11.60
2008,08,27,05,20,11.60
2008,08,27,05,21,11.50
2008,08,27,05,22,11.40
2008,08,27,05,23,11.40
2008,08,27,05,24,11.40
2008,08,27,05,25,11.40
2008,08,27,05,26,11.40
2008,08,27,05,27,11.40
2008,08,27,05,28,11.40
2008,08,27,05,29,11.30
2008,08,27,05,30,11.30
2008,08,27,05,31,11.30
2008,08,27,05,32,11.30
2008,08,27,05,33,11.30
2008,08,27,05,34,11.30
2008,08,27,05,35,11.20
2008,08,27,05,36,11.20
2008,08,27,05,37,11.20
2008,08,27,05,38,11.20
2008,08,27,05,39,11.20
2008,08,27,05,40,11.20
2008,08,27,05,41,11.20
2008,08,27,05,42,11.20
2008,08,27,05,43,11.10
2008,08,27,05,44,11.10
2008,08,27,05,45,11.10
2008,08,27,05,46,11.10
2008,08,27,05,47,11.10
2008,08,27,05,48,11.10
2008,08,27,05,49,11.10
2008,08,27,05,50,11.10
2008,08,27,05,51,11.10
2008,08,27,05,52,11.10
2008,08,27,05,53,11.10
2008,08,27,05,54,11.10
2008,08,27,05,55,11.00
2008,08,27,05,56,10.90
2008,08,27,05,57,10.90
2008,08,27,05,58,10.90
2008,08,27,05,59,10.90
2008,08,27,06,00,10.90
2008,08,27,06,01,10.90
2008,08,27,06,02,10.90
2008,08,27,06,03,10.90
2008,08,27,06,04,10.90
2008,08,27,06,05,10.90
2008,08,27,06,06,10.90
2008,08,27,06,07,10.90
2008,08,27,06,08,10.90
2008,08,27,06,09,10.90
2008,08,27,06,10,10.90
2008,08,27,06,11,10.90
2008,08,27,06,12,10.90
2008,08,27,06,13,10.90
2008,08,27,06,14,10.90
2008,08,27,06,15,10.90
2008,08,27,06,16,10.90
2008,08,27,06,17,10.90
2008,08,27,06,18,10.90
2008,08,27,06,19,10.90
2008,08,27,06,20,10.90
2008,08,27,06,21,10.90
2008,08,27,06,22,10.90
2008,08,27,06,23,10.90
2008,08,27,06,24,10.90
2008,08,27,06,25,10.90
2008,08,27,06,26,10.90
2008,08,27,06,27,10.90
2008,08,27,06,28,10.90
2008,08,27,06,29,10.90
2008,08,27,06,30,10.90
2008,08,27,06,31,10.90
2008,08,27,06,32,10.90
2008,08,27,06,33,10.90
2008,08,27,06,34,10.90
2008,08,27,06,35,10.90
2008,08,27,06,36,10.90
2008,08,27,06,37,10.90
2008,08,27,06,38,10.90
2008,08,27,06,39,10.90
2008,08,27,06,40,10.90
2008,08,27,06,41,10.90
2008,08,27,06,42,10.90
2008,08,27,06,43,10.90
2008,08,27,06,44,10.90
2008,08,27,06,45,10.90
2008,08,27,06,46,10.90
2008,08,27,06,47,10.90
2008,08,27,06,48,10.90
2008,08,27,06,49,10.90
2008,08,27,06,50,10.90
2008,08,27,06,51,10.90
2008,08,27,06,52,10.90
2008,08,27,06,53,10.90
2008,08,27,06,54,10.90
2008,08,27,06,55,10.90
2008,08,27,06,56,10.90
2008,08,27,06,57,10.90
2008,08,27,06,58,10.90
2008,08,27,06,59,10.90
2008,08,27,07,00,10.90
2008,08,27,07,01,10.90
2008,08,27,07,02,10.90
2008,08,27,07,03,10.90
2008,08,27,07,04,10.90
2008,08,27,07,05,10.90
2008,08,27,07,06,10.90
2008,08,27,07,07,10.90
2008,08,27,07,08,10.90
2008,08,27,07,09,10.90
2008,08,27,07,10,10.90
2008,08,27,07,11,10.90
2008,08,27,07,12,10.90
2008,08,27,07,13,11.00
2008,08,27,07,14,11.10
2008,08,27,07,15,11.10
2008,08,27,07,16,11.10
2008,08,27,07,17,11.10
2008,08,27,07,18,11.10
2008,08,27,07,19,11.10
2008,08,27,07,20,11.10
2008,08,27,07,21,11.10
2008,08,27,07,22,11.10
2008,08,27,07,23,11.10
2008,08,27,07,24,11.10
2008,08,27,07,25,11.10
2008,08,27,07,26,11.10
2008,08,27,07,27,11.10
2008,08,27,07,28,11.10
2008,08,27,07,29,11.10
2008,08,27,07,30,11.10
2008,08,27,07,31,11.10
2008,08,27,07,32,11.10
2008,08,27,07,33,11.10
2008,08,27,07,34,11.10
2008,08,27,07,35,11.10
2008,08,27,07,36,11.10
2008,08,27,07,37,11.10
2008,08,27,07,38,11.10
2008,08,27,07,39,11.10
2008,08,27,07,40,11.10
2008,08,27,07,41,11.10
2008,08,27,07,42,11.10
2008,08,27,07,43,11.10
2008,08,27,07,44,11.10
2008,08,27,07,45,11.10
2008,08,27,07,46,11.10
2008,08,27,07,47,11.10
2008,08,27,07,48,11.20
2008,08,27,07,49,11.20
2008,08,27,07,50,11.20
2008,08,27,07,51,11.20
2008,08,27,07,52,11.20
2008,08,27,07,53,11.30
2008,08,27,07,54,11.30
2008,08,27,07,55,11.30
2008,08,27,07,56,11.30
2008,08,27,07,57,11.40
2008,08,27,07,58,11.40
2008,08,27,07,59,11.40
2008,08,27,08,00,11.40
2008,08,27,08,01,11.40
2008,08,27,08,02,11.40
2008,08,27,08,03,11.60
2008,08,27,08,04,11.60
2008,08,27,08,05,11.60
2008,08,27,08,06,11.60
2008,08,27,08,07,11.60
2008,08,27,08,08,11.60
2008,08,27,08,09,11.60
2008,08,27,08,10,11.70
2008,08,27,08,11,11.70
2008,08,27,08,12,11.70
2008,08,27,08,13,11.70
2008,08,27,08,14,11.70
2008,08,27,08,15,11.80
2008,08,27,08,16,11.80
2008,08,27,08,17,11.80
2008,08,27,08,18,11.80
2008,08,27,08,19,11.80
2008,08,27,08,20,11.80
2008,08,27,08,21,11.80
2008,08,27,08,22,11.80
2008,08,27,08,23,11.80
2008,08,27,08,24,11.90
2008,08,27,08,25,11.90
2008,08,27,08,26,11.90
2008,08,27,08,27,11.90
2008,08,27,08,28,11.90
2008,08,27,08,29,12.00
2008,08,27,08,30,12.00
2008,08,27,08,31,12.00
2008,08,27,08,32,12.10
2008,08,27,08,33,12.10
2008,08,27,08,34,12.10
2008,08,27,08,35,12.20
2008,08,27,08,36,12.20
2008,08,27,08,37,12.30
2008,08,27,08,38,12.30
2008,08,27,08,39,12.30
2008,08,27,08,40,12.40
2008,08,27,08,41,12.40
2008,08,27,08,42,12.50
2008,08,27,08,43,12.50
2008,08,27,08,44,12.50
2008,08,27,08,45,12.60
2008,08,27,08,46,12.60
2008,08,27,08,47,12.70
2008,08,27,08,48,12.70
2008,08,27,08,49,12.70
2008,08,27,08,50,12.70
2008,08,27,08,51,12.80
2008,08,27,08,52,12.80
2008,08,27,08,53,12.80
2008,08,27,08,54,12.80
2008,08,27,08,55,12.80
2008,08,27,08,56,12.90
2008,08,27,08,57,12.90
2008,08,27,08,58,12.90
2008,08,27,08,59,12.90
2008,08,27,09,00,12.90
2008,08,27,09,01,13.00
2008,08,27,09,02,13.00
2008,08,27,09,03,13.00
2008,08,27,09,04,13.10
2008,08,27,09,05,13.10
2008,08,27,09,06,13.10
2008,08,27,09,07,13.10
2008,08,27,09,08,13.20
2008,08,27,09,09,13.20
2008,08,27,09,10,13.30
2008,08,27,09,11,13.30
2008,08,27,09,12,13.30
2008,08,27,09,13,13.30
2008,08,27,09,14,13.40
2008,08,27,09,15,13.40
2008,08,27,09,16,13.50
2008,08,27,09,17,13.50
2008,08,27,09,18,13.50
2008,08,27,09,19,13.50
2008,08,27,09,20,13.60
2008,08,27,09,21,13.60
2008,08,27,09,22,13.60
2008,08,27,09,23,13.60
2008,08,27,09,24,13.70
2008,08,27,09,25,13.70
2008,08,27,09,26,13.70
2008,08,27,09,27,13.70
2008,08,27,09,28,13.70
2008,08,27,09,29,13.70
2008,08,27,09,30,13.80
2008,08,27,09,31,13.80
2008,08,27,09,32,13.80
2008,08,27,09,33,13.80
2008,08,27,09,34,13.80
2008,08,27,09,35,13.90
2008,08,27,09,36,13.90
2008,08,27,09,37,13.90
2008,08,27,09,38,14.00
2008,08,27,09,39,14.00
2008,08,27,09,40,14.00
2008,08,27,09,41,14.00
2008,08,27,09,42,14.10
2008,08,27,09,43,14.10
2008,08,27,09,44,14.10
2008,08,27,09,45,14.10
2008,08,27,09,46,14.20
2008,08,27,09,47,14.20
2008,08,27,09,48,14.20
2008,08,27,09,49,14.20
2008,08,27,09,50,14.40
2008,08,27,09,51,14.50
2008,08,27,09,52,14.60
2008,08,27,09,53,14.60
2008,08,27,09,54,14.70
2008,08,27,09,55,14.80
2008,08,27,09,56,14.90
2008,08,27,09,57,15.00
2008,08,27,09,58,15.10
2008,08,27,09,59,15.30
2008,08,27,10,00,15.40
2008,08,27,10,01,15.50
2008,08,27,10,02,15.60
2008,08,27,10,03,15.60
2008,08,27,10,04,15.70
2008,08,27,10,05,15.70
2008,08,27,10,06,15.70
2008,08,27,10,07,15.70
2008,08,27,10,08,15.80
2008,08,27,10,09,15.80
2008,08,27,10,10,15.80
2008,08,27,10,11,15.80
2008,08,27,10,12,15.70
2008,08,27,10,13,15.70
2008,08,27,10,14,15.70
2008,08,27,10,15,15.60
2008,08,27,10,16,15.60
2008,08,27,10,17,15.50
2008,08,27,10,18,15.50
2008,08,27,10,19,15.50
2008,08,27,10,20,15.50
2008,08,27,10,21,15.40
2008,08,27,10,22,15.40
2008,08,27,10,23,15.40
2008,08,27,10,24,15.40
2008,08,27,10,25,15.30
2008,08,27,10,26,15.30
2008,08,27,10,27,15.30
2008,08,27,10,28,15.30
2008,08,27,10,29,15.30
2008,08,27,10,30,15.30
2008,08,27,10,31,15.30
2008,08,27,10,32,15.30
2008,08,27,10,33,15.30
2008,08,27,10,34,15.40
2008,08,27,10,35,15.40
2008,08,27,10,36,15.50
2008,08,27,10,37,15.50
2008,08,27,10,38,15.50
2008,08,27,10,39,15.50
2008,08,27,10,40,15.50
2008,08,27,10,41,15.50
2008,08,27,10,42,15.60
2008,08,27,10,43,15.60
2008,08,27,10,44,15.60
2008,08,27,10,45,15.70
2008,08,27,10,46,15.70
2008,08,27,10,47,15.80
2008,08,27,10,48,15.80
2008,08,27,10,49,15.80
2008,08,27,10,50,15.90
2008,08,27,10,51,16.00
2008,08,27,10,52,16.10
2008,08,27,10,53,16.20
2008,08,27,10,54,16.30
2008,08,27,10,55,16.40
2008,08,27,10,56,16.50
2008,08,27,10,57,16.60
2008,08,27,10,58,16.70
2008,08,27,10,59,16.70
2008,08,27,11,00,16.80
2008,08,27,11,01,16.80
2008,08,27,11,02,16.80
2008,08,27,11,03,16.90
2008,08,27,11,04,16.90
2008,08,27,11,05,17.00
2008,08,27,11,06,17.00
2008,08,27,11,07,17.10
2008,08,27,11,08,17.10
2008,08,27,11,09,17.20
2008,08,27,11,10,17.20
2008,08,27,11,11,17.30
2008,08,27,11,12,17.30
2008,08,27,11,13,17.30
2008,08,27,11,14,17.30
2008,08,27,11,15,17.30
2008,08,27,11,16,17.30
2008,08,27,11,17,17.20
2008,08,27,11,18,17.20
2008,08,27,11,19,17.30
2008,08,27,11,20,17.30
2008,08,27,11,21,17.30
2008,08,27,11,22,17.30
2008,08,27,11,23,17.30
2008,08,27,11,24,17.30
2008,08,27,11,25,17.30
2008,08,27,11,26,17.30
2008,08,27,11,27,17.30
2008,08,27,11,28,17.30
2008,08,27,11,29,17.30
2008,08,27,11,30,17.30
2008,08,27,11,31,17.40
2008,08,27,11,32,17.40
2008,08,27,11,33,17.50
2008,08,27,11,34,17.50
2008,08,27,11,35,17.60
2008,08,27,11,36,17.60
2008,08,27,11,37,17.60
2008,08,27,11,38,17.50
2008,08,27,11,39,17.50
2008,08,27,11,40,17.50
2008,08,27,11,41,17.50
2008,08,27,11,42,17.40
2008,08,27,11,43,17.50
2008,08,27,11,44,17.50
2008,08,27,11,45,17.50
2008,08,27,11,46,17.50
2008,08,27,11,47,17.60
2008,08,27,11,48,17.60
2008,08,27,11,49,17.60
2008,08,27,11,50,17.70
2008,08,27,11,51,17.70
2008,08,27,11,52,17.70
2008,08,27,11,53,17.60
2008,08,27,11,54,17.60
2008,08,27,11,55,17.60
2008,08,27,11,56,17.60
2008,08,27,11,57,17.70
2008,08,27,11,58,17.70
2008,08,27,11,59,17.80
2008,08,27,12,00,17.80
2008,08,27,12,01,17.90
2008,08,27,12,02,17.90
2008,08,27,12,03,17.90
2008,08,27,12,04,18.00
2008,08,27,12,05,18.10
2008,08,27,12,06,18.10
2008,08,27,12,07,18.20
2008,08,27,12,08,18.20
2008,08,27,12,09,18.20
2008,08,27,12,10,18.20
2008,08,27,12,11,18.10
2008,08,27,12,12,18.10
2008,08,27,12,13,18.10
2008,08,27,12,14,18.10
2008,08,27,12,15,18.20
2008,08,27,12,16,18.20
2008,08,27,12,17,18.20
2008,08,27,12,18,18.30
2008,08,27,12,19,18.30
2008,08,27,12,20,18.30
2008,08,27,12,21,18.30
2008,08,27,12,22,18.30
2008,08,27,12,23,18.30
2008,08,27,12,24,18.30
2008,08,27,12,25,18.40
2008,08,27,12,26,18.40
2008,08,27,12,27,18.50
2008,08,27,12,28,18.50
2008,08,27,12,29,18.60
2008,08,27,12,30,18.70
2008,08,27,12,31,18.80
2008,08,27,12,32,18.80
2008,08,27,12,33,18.90
2008,08,27,12,34,18.90
2008,08,27,12,35,18.90
2008,08,27,12,36,18.90
2008,08,27,12,37,19.10
2008,08,27,12,38,19.10
2008,08,27,12,39,19.10
2008,08,27,12,40,19.10
2008,08,27,12,41,19.10
2008,08,27,12,42,19.10
2008,08,27,12,43,19.00
2008,08,27,12,44,18.90
2008,08,27,12,45,18.80
2008,08,27,12,46,18.80
2008,08,27,12,47,18.80
2008,08,27,12,48,18.90
2008,08,27,12,49,18.90
2008,08,27,12,50,19.00
2008,08,27,12,51,19.10
2008,08,27,12,52,19.10
2008,08,27,12,53,19.10
2008,08,27,12,54,19.10
2008,08,27,12,55,19.10
2008,08,27,12,56,19.10
2008,08,27,12,57,19.10
2008,08,27,12,58,19.10
2008,08,27,12,59,19.10
2008,08,27,13,00,19.10
2008,08,27,13,01,19.10
2008,08,27,13,02,19.10
2008,08,27,13,03,19.10
2008,08,27,13,04,19.20
2008,08,27,13,05,19.20
2008,08,27,13,06,19.20
2008,08,27,13,07,19.30
2008,08,27,13,08,19.40
2008,08,27,13,09,19.50
2008,08,27,13,10,19.60
2008,08,27,13,11,19.70
2008,08,27,13,12,19.70
2008,08,27,13,13,19.80
2008,08,27,13,14,19.80
2008,08,27,13,15,19.80
2008,08,27,13,16,19.80
2008,08,27,13,17,19.90
2008,08,27,13,18,19.90
2008,08,27,13,19,19.90
2008,08,27,13,20,19.90
2008,08,27,13,21,19.90
2008,08,27,13,22,19.80
2008,08,27,13,23,19.80
2008,08,27,13,24,19.70
2008,08,27,13,25,19.70
2008,08,27,13,26,19.60
2008,08,27,13,27,19.60
2008,08,27,13,28,19.70
2008,08,27,13,29,19.80
2008,08,27,13,30,19.80
2008,08,27,13,31,19.90
2008,08,27,13,32,19.90
2008,08,27,13,33,19.90
2008,08,27,13,34,19.90
2008,08,27,13,35,20.10
2008,08,27,13,36,20.10
2008,08,27,13,37,20.00
2008,08,27,13,38,19.90
2008,08,27,13,39,19.90
2008,08,27,13,40,19.90
2008,08,27,13,41,19.80
2008,08,27,13,42,19.80
2008,08,27,13,43,19.80
2008,08,27,13,44,19.70
2008,08,27,13,45,19.70
2008,08,27,13,46,19.70
2008,08,27,13,47,19.60
2008,08,27,13,48,19.60
2008,08,27,13,49,19.60
2008,08,27,13,50,19.50
2008,08,27,13,51,19.50
2008,08,27,13,52,19.40
2008,08,27,13,53,19.40
2008,08,27,13,54,19.30
2008,08,27,13,55,19.20
2008,08,27,13,56,19.20
2008,08,27,13,57,19.10
2008,08,27,13,58,19.10
2008,08,27,13,59,19.10
2008,08,27,14,00,19.10
2008,08,27,14,01,19.00
2008,08,27,14,02,18.90
2008,08,27,14,03,18.90
2008,08,27,14,04,18.90
2008,08,27,14,05,18.80
2008,08,27,14,06,18.80
2008,08,27,14,07,18.80
2008,08,27,14,08,18.80
2008,08,27,14,09,18.70
2008,08,27,14,10,18.70
2008,08,27,14,11,18.60
2008,08,27,14,12,18.60
2008,08,27,14,13,18.60
2008,08,27,14,14,18.50
2008,08,27,14,15,18.50
2008,08,27,14,16,18.40
2008,08,27,14,17,18.40
2008,08,27,14,18,18.30
2008,08,27,14,19,18.20
2008,08,27,14,20,18.20
2008,08,27,14,21,18.10
2008,08,27,14,22,18.10
2008,08,27,14,23,18.00
2008,08,27,14,24,17.90
2008,08,27,14,25,17.90
2008,08,27,14,26,17.90
2008,08,27,14,27,17.90
2008,08,27,14,28,17.90
2008,08,27,14,29,17.90
2008,08,27,14,30,17.90
2008,08,27,14,31,18.00
2008,08,27,14,32,18.10
2008,08,27,14,33,18.20
2008,08,27,14,34,18.20
2008,08,27,14,35,18.30
2008,08,27,14,36,18.50
2008,08,27,14,37,18.60
2008,08,27,14,38,18.70
2008,08,27,14,39,18.90
2008,08,27,14,40,19.00
2008,08,27,14,41,19.20
2008,08,27,14,42,19.40
2008,08,27,14,43,19.50
2008,08,27,14,44,19.60
2008,08,27,14,45,19.80
2008,08,27,14,46,19.90
2008,08,27,14,47,19.90
2008,08,27,14,48,19.90
2008,08,27,14,49,19.90
2008,08,27,14,50,19.90
2008,08,27,14,51,19.90
2008,08,27,14,52,19.90
2008,08,27,14,53,19.80
2008,08,27,14,54,19.80
2008,08,27,14,55,19.80
2008,08,27,14,56,19.80
2008,08,27,14,57,19.80
2008,08,27,14,58,19.80
2008,08,27,14,59,19.90
2008,08,27,15,00,19.90
2008,08,27,15,01,19.90
2008,08,27,15,02,20.00
2008,08,27,15,03,20.10
2008,08,27,15,04,20.20
2008,08,27,15,05,20.30
2008,08,27,15,06,20.30
2008,08,27,15,07,20.30
2008,08,27,15,08,20.40
2008,08,27,15,09,20.40
2008,08,27,15,10,20.40
2008,08,27,15,11,20.40
2008,08,27,15,12,20.30
2008,08,27,15,13,20.20
2008,08,27,15,14,20.20
2008,08,27,15,15,20.30
2008,08,27,15,16,20.20
2008,08,27,15,17,20.20
2008,08,27,15,18,20.20
2008,08,27,15,19,20.20
2008,08,27,15,20,20.20
2008,08,27,15,21,20.20
2008,08,27,15,22,20.20
2008,08,27,15,23,20.20
2008,08,27,15,24,20.20
2008,08,27,15,25,20.20
2008,08,27,15,26,20.30
2008,08,27,15,27,20.30
2008,08,27,15,28,20.30
2008,08,27,15,29,20.30
2008,08,27,15,30,20.30
2008,08,27,15,31,20.20
2008,08,27,15,32,20.00
2008,08,27,15,33,19.90
2008,08,27,15,34,19.80
2008,08,27,15,35,19.60
2008,08,27,15,36,19.50
2008,08,27,15,37,19.40
2008,08,27,15,38,19.20
2008,08,27,15,39,19.10
2008,08,27,15,40,18.90
2008,08,27,15,41,18.80
2008,08,27,15,42,18.70
2008,08,27,15,43,18.50
2008,08,27,15,44,18.40
2008,08,27,15,45,18.30
2008,08,27,15,46,18.20
2008,08,27,15,47,18.20
2008,08,27,15,48,18.20
2008,08,27,15,49,18.10
2008,08,27,15,50,18.10
2008,08,27,15,51,18.00
2008,08,27,15,52,17.90
2008,08,27,15,53,17.90
2008,08,27,15,54,17.90
2008,08,27,15,55,17.90
2008,08,27,15,56,17.90
2008,08,27,15,57,17.90
2008,08,27,15,58,17.90
2008,08,27,15,59,17.90
2008,08,27,16,00,17.90
2008,08,27,16,01,17.80
2008,08,27,16,02,17.70
2008,08,27,16,03,17.70
2008,08,27,16,04,17.60
2008,08,27,16,05,17.60
2008,08,27,16,06,17.70
2008,08,27,16,07,17.70
2008,08,27,16,08,17.70
2008,08,27,16,09,17.70
2008,08,27,16,10,17.70
2008,08,27,16,11,17.80
2008,08,27,16,12,17.80
2008,08,27,16,13,17.80
2008,08,27,16,14,17.90
2008,08,27,16,15,17.90
2008,08,27,16,16,17.90
2008,08,27,16,17,17.90
2008,08,27,16,18,17.90
2008,08,27,16,19,17.90
2008,08,27,16,20,17.90
2008,08,27,16,21,17.80
2008,08,27,16,22,17.80
2008,08,27,16,23,17.80
2008,08,27,16,24,17.80
2008,08,27,16,25,17.80
2008,08,27,16,26,17.80
2008,08,27,16,27,17.80
2008,08,27,16,28,17.90
2008,08,27,16,29,17.90
2008,08,27,16,30,17.90
2008,08,27,16,31,17.90
2008,08,27,16,32,17.90
2008,08,27,16,33,17.90
2008,08,27,16,34,17.90
2008,08,27,16,35,17.90
2008,08,27,16,36,17.90
2008,08,27,16,37,17.90
2008,08,27,16,38,17.90
2008,08,27,16,39,17.90
2008,08,27,16,40,17.90
2008,08,27,16,41,17.90
2008,08,27,16,42,17.90
2008,08,27,16,43,17.90
2008,08,27,16,44,17.90
2008,08,27,16,45,17.90
2008,08,27,16,46,17.90
2008,08,27,16,47,17.90
2008,08,27,16,48,17.90
2008,08,27,16,49,18.10
2008,08,27,16,50,18.10
2008,08,27,16,51,18.10
2008,08,27,16,52,18.20
2008,08,27,16,53,18.20
2008,08,27,16,54,18.20
2008,08,27,16,55,18.30
2008,08,27,16,56,18.30
2008,08,27,16,57,18.30
2008,08,27,16,58,18.40
2008,08,27,16,59,18.40
2008,08,27,17,00,18.40
2008,08,27,17,01,18.30
2008,08,27,17,02,18.30
2008,08,27,17,03,18.20
2008,08,27,17,04,18.20
2008,08,27,17,05,18.30
2008,08,27,17,06,18.30
2008,08,27,17,07,18.40
2008,08,27,17,08,18.40
2008,08,27,17,09,18.50
2008,08,27,17,10,18.60
2008,08,27,17,11,18.60
2008,08,27,17,12,18.70
2008,08,27,17,13,18.70
2008,08,27,17,14,18.70
2008,08,27,17,15,18.80
2008,08,27,17,16,18.90
2008,08,27,17,17,18.90
2008,08,27,17,18,18.90
2008,08,27,17,19,19.00
2008,08,27,17,20,19.10
2008,08,27,17,21,19.10
2008,08,27,17,22,19.10
2008,08,27,17,23,19.10
2008,08,27,17,24,19.10
2008,08,27,17,25,19.10
2008,08,27,17,26,19.10
2008,08,27,17,27,18.90
2008,08,27,17,28,18.90
2008,08,27,17,29,18.80
2008,08,27,17,30,18.70
2008,08,27,17,31,18.60
2008,08,27,17,32,18.50
2008,08,27,17,33,18.40
2008,08,27,17,34,18.30
2008,08,27,17,35,18.20
2008,08,27,17,36,18.20
2008,08,27,17,37,18.20
2008,08,27,17,38,18.20
2008,08,27,17,39,18.20
2008,08,27,17,40,18.20
2008,08,27,17,41,18.10
2008,08,27,17,42,18.10
2008,08,27,17,43,18.10
2008,08,27,17,44,18.10
2008,08,27,17,45,18.10
2008,08,27,17,46,18.10
2008,08,27,17,47,18.00
2008,08,27,17,48,17.90
2008,08,27,17,49,17.90
2008,08,27,17,50,17.90
2008,08,27,17,51,17.90
2008,08,27,17,52,17.90
2008,08,27,17,53,17.90
2008,08,27,17,54,17.90
2008,08,27,17,55,17.90
2008,08,27,17,56,17.90
2008,08,27,17,57,17.90
2008,08,27,17,58,17.90
2008,08,27,17,59,17.90
2008,08,27,18,00,17.90
2008,08,27,18,01,17.90
2008,08,27,18,02,17.90
2008,08,27,18,03,17.90
2008,08,27,18,04,18.00
2008,08,27,18,05,18.10
2008,08,27,18,06,18.10
2008,08,27,18,07,18.10
2008,08,27,18,08,18.10